This demonstration page uses our WeatherBlox Daily Observations layout. Learn more.

Left ArrowRight Arrow

Hourly Observations for September 3, 2021

Temp ( °F °C ) Dew Point ( °F °C ) Humidity (%) Winds ( mph kmh ) Pressure ( in mb ) Visibility ( mi km ) Precip ( " mm )
12:15 am 00:15 Clear 63 17 54 12 73 73 NNW 6 9 30.07 1018 10 16 N/A
12:35 am 00:35 Clear 63 17 54 12 73 73 NNW 6 9 30.07 1018 10 16 N/A
12:55 am 00:55 Clear 63 17 54 12 73 73 N 6 9 30.07 1018 10 16 N/A
1:15 am 01:15 Clear 63 17 52 11 68 68 N 8 13 30.08 1018 10 16 N/A
1:35 am 01:35 Clear 61 16 52 11 72 72 N 6 9 30.08 1019 10 16 N/A
1:55 am 01:55 Clear 63 17 52 11 68 68 N 6 9 30.08 1018 10 16 N/A
2:15 am 02:15 Clear 61 16 52 11 72 72 N 6 9 30.08 1019 10 16 N/A
2:35 am 02:35 Clear 61 16 52 11 72 72 NNW 5 7 30.07 1018 10 16 N/A
2:55 am 02:55 Clear 61 16 52 11 72 72 NNW 7 11 30.07 1018 10 16 N/A
3:15 am 03:15 Clear 61 16 52 11 72 72 N 7 11 30.08 1019 10 16 N/A
3:35 am 03:35 Clear 61 16 52 11 72 72 NNW 8 13 30.08 1019 10 16 N/A
3:55 am 03:55 Clear 59 15 52 11 77 77 N 8 13 30.09 1019 10 16 N/A
4:15 am 04:15 Clear 59 15 52 11 77 77 N 7 11 30.09 1019 10 16 N/A
4:35 am 04:35 Clear 59 15 52 11 77 77 N 8 13 30.09 1019 10 16 N/A
4:55 am 04:55 Clear 59 15 52 11 77 77 NNW 7 11 30.08 1019 10 16 N/A
5:15 am 05:15 Clear 59 15 50 10 72 72 N 6 9 30.08 1019 10 16 N/A
5:35 am 05:35 Clear 59 15 50 10 72 72 N 7 11 30.09 1019 10 16 N/A
5:55 am 05:55 Clear 57 14 50 10 77 77 NNW 7 11 30.10 1019 10 16 N/A
6:15 am 06:15 Clear 57 14 50 10 77 77 NNW 7 11 30.10 1019 10 16 N/A
6:35 am 06:35 Clear 55 13 50 10 82 82 NNW 6 9 30.11 1020 10 16 N/A
6:55 am 06:55 Sunny 55 13 50 10 82 82 NNW 7 11 30.12 1020 10 16 N/A
7:15 am 07:15 Sunny 55 13 52 11 88 88 N 5 7 30.12 1020 10 16 N/A
7:35 am 07:35 Sunny 59 15 52 11 77 77 N 3 6 30.12 1020 10 16 N/A
7:55 am 07:55 Sunny 61 16 52 11 72 72 NNW 6 9 30.13 1020 10 16 N/A
8:15 am 08:15 Sunny 63 17 52 11 68 68 N 5 7 30.13 1020 10 16 N/A
8:35 am 08:35 Sunny 63 17 52 11 68 68 N 8 13 30.13 1020 10 16 N/A
8:55 am 08:55 Sunny 64 18 52 11 64 64 NNE 6 9 30.12 1020 10 16 N/A
9:15 am 09:15 Sunny 64 18 52 11 64 64 N 6 9 30.12 1020 10 16 N/A
9:35 am 09:35 Sunny 66 19 54 12 64 64 N 6 9 30.13 1020 10 16 N/A
9:55 am 09:55 Sunny 68 20 54 12 60 60 NE 7 11 30.13 1020 10 16 N/A
10:15 am 10:15 Sunny 68 20 54 12 60 60 NNW 10 17 30.14 1021 10 16 N/A
10:35 am 10:35 Sunny 68 20 52 11 56 56 N 9 15 30.14 1021 10 16 N/A
10:55 am 10:55 Sunny 70 21 54 12 57 57 NNE 8 13 30.14 1021 10 16 N/A
11:15 am 11:15 Sunny 70 21 54 12 57 57 N 8 13 30.14 1021 10 16 N/A
11:35 am 11:35 Sunny 70 21 54 12 57 57 N 8 13 30.13 1020 10 16 N/A
11:55 am 11:55 Sunny 72 22 54 12 53 53 N 12 19 30.13 1020 10 16 N/A
12:15 pm 12:15 Sunny 72 22 55 13 57 57 N 10 17 30.12 1020 10 16 N/A
12:35 pm 12:35 Sunny 72 22 55 13 57 57 N 8 13 30.12 1020 10 16 N/A
12:55 pm 12:55 Sunny 73 23 55 13 53 53 NW 7 11 30.11 1020 10 16 N/A
1:15 pm 13:15 Sunny 73 23 55 13 53 53 N 5 7 30.11 1020 10 16 N/A
1:35 pm 13:35 Sunny 73 23 55 13 53 53 N 8 13 30.10 1019 10 16 N/A
1:55 pm 13:55 Sunny 73 23 55 13 53 53 NNW 8 13 30.09 1019 10 16 N/A
2:15 pm 14:15 Sunny 77 25 57 14 51 51 N 7 11 30.08 1019 10 16 N/A
2:35 pm 14:35 Sunny 75 24 57 14 54 54 ENE 5 7 30.08 1018 10 16 N/A
2:55 pm 14:55 Sunny 75 24 55 13 50 50 NNW 5 7 30.08 1018 10 16 N/A
3:15 pm 15:15 Sunny 77 25 54 12 44 44 N 3 6 30.06 1018 10 16 N/A
3:35 pm 15:35 Sunny 77 25 55 13 47 47 N 5 7 30.06 1018 10 16 N/A
3:55 pm 15:55 Sunny 77 25 54 12 44 44 NNE 3 6 30.06 1018 10 16 N/A
4:15 pm 16:15 Sunny 77 25 55 13 47 47 N 7 11 30.06 1018 10 16 N/A
4:35 pm 16:35 Sunny 77 25 55 13 47 47 N 10 17 30.05 1018 10 16 N/A
4:55 pm 16:55 Sunny 77 25 55 13 47 47 NNW 8 13 30.05 1018 10 16 N/A
5:15 pm 17:15 Sunny 77 25 55 13 47 47 N 7 11 30.06 1018 10 16 N/A
5:35 pm 17:35 Sunny 77 25 55 13 47 47 NNE 8 13 30.06 1018 10 16 N/A
5:55 pm 17:55 Sunny 77 25 55 13 47 47 NNE 7 11 30.05 1018 10 16 N/A
6:15 pm 18:15 Sunny 75 24 57 14 54 54 NNE 3 6 30.06 1018 10 16 N/A
6:35 pm 18:35 Sunny 75 24 55 13 50 50 NE 8 13 30.07 1018 10 16 N/A
6:55 pm 18:55 Sunny 73 23 55 13 53 53 NE 3 6 30.07 1018 10 16 N/A
7:15 pm 19:15 Sunny 73 23 55 13 53 53 NE 5 7 30.07 1018 10 16 N/A
7:35 pm 19:35 Sunny 72 22 57 14 61 61 N N/A 30.07 1018 10 16 N/A
7:55 pm 19:55 Clear 72 22 57 14 61 61 N N/A 30.07 1018 10 16 N/A
8:15 pm 20:15 Clear 68 20 59 15 73 73 N N/A 30.09 1019 10 16 N/A
8:35 pm 20:35 Clear 68 20 61 16 78 78 N N/A 30.09 1019 10 16 N/A
8:55 pm 20:55 Clear 68 20 59 15 73 73 NNE 3 6 30.10 1019 10 16 N/A
9:15 pm 21:15 Clear 66 19 61 16 83 83 N N/A 30.10 1019 10 16 N/A
9:35 pm 21:35 Clear 68 20 59 15 73 73 NNE 3 6 30.11 1020 10 16 N/A
9:55 pm 21:55 Clear 66 19 59 15 78 78 N N/A 30.11 1020 10 16 N/A
10:15 pm 22:15 Clear 66 19 59 15 78 78 N N/A 30.11 1020 10 16 N/A
10:35 pm 22:35 Clear 66 19 59 15 78 78 N N/A 30.12 1020 10 16 N/A
10:55 pm 22:55 Partly Cloudy 63 17 59 15 88 88 N N/A 30.13 1020 10 16 N/A
11:15 pm 23:15 Cloudy 64 18 61 16 88 88 N N/A 30.12 1020 10 16 N/A
11:35 pm 23:35 Cloudy 64 18 61 16 88 88 NNE 3 6 30.11 1020 10 16 N/A
11:55 pm 23:55 Mostly Cloudy 64 18 59 15 83 83 N N/A 30.12 1020 10 16 N/A

Powered by AerisWeather